User: anonymous   Login
Location: Tucson
(32.2217°N, 110.9265°W)
Time: 01:40:49
(UTC-07:00)
Language:

Altair - Orbit

View from above orbital plane
View from above orbital plane
View from above satellite
View from above satellite

Ground track
Ground track

The orbit data is extracted from the following two-line orbital elements,

1 00050U 60009B   21293.58375034 -.00000097  00000-0 -10667-3 0  9993
2 00050  47.2340  40.0664 0113253 346.2531  13.5185 12.20116385730064
Epoch (UTC): 20 October 2021 14:00:36
Eccentricity: 0.0113253
inclination: 47.2340°
perigee height: 1502 km
apogee height: 1682 km
right ascension of ascending node: 40.0664°
argument of perigee: 346.2531°
revolutions per day: 12.20116385
mean anomaly at epoch: 13.5185°
orbit number at epoch: 73006

The dashed part of the orbit path shows where the satellite is in the earth's shadow,  

DLR